Regional Weather Roundup
Issued by NWS Newport/Morehead, NC

Home | Current Version | Previous Version | Text Only | Print | Product List | Glossary On
Versions: 1 2 3 4 5 6 7 8 9 10 11 12 13 14 15 16 17 18 19 20 21 22 23 24 25 26 27 28 29 30 31 32 33 34 35 36 37 38 39 40 41 42 43 44 45 46 47 48 49 50
000
ASUS42 KMHX 062025
RWRMHX
WEATHER ROUNDUP FOR EASTERN NORTH CAROLINA
NATIONAL WEATHER SERVICE NEWPORT/MOREHEAD CITY NC
400 PM EDT MON JUL 06 2015

NOTE: "FAIR" INDICATES FEW OR NO CLOUDS BELOW 12,000 FEET
WITH NO SIGNIFICANT WEATHER AND/OR OBSTRUCTIONS TO VISIBILITY

NCZ015>017-031-032-045>047-102-103-062100-
NORTH COAST

CITY           SKY/WX    TMP DP  RH WIND       PRES   REMARKS
EDENTON          N/A     82  75  78 SE7       30.08F
ELIZABETH CITY CLOUDY    82  73  74 S7        30.10S
KITTY HAWK     CLOUDY    83  74  74 S6        30.10F
MANTEO         CLOUDY    82  75  80 S14       30.11S

$$

NCZ045>047-081-094-103-104-062100-
CENTRAL COAST

CITY           SKY/WX    TMP DP  RH WIND       PRES   REMARKS
FRISCO         PTSUNNY   82  73  74 SW12      30.13F
SWANQUARTER      N/A     84 N/A N/A S15       30.06F

$$

NCZ095-097-098-100-101-062100-
SOUTHERN COAST

CITY           SKY/WX    TMP DP  RH WIND       PRES   REMARKS
BEAUFORT       MOSUNNY   83  75  77 S10       30.11F
CEDAR ISLAND     N/A     86 N/A N/A SE10G20   30.15S
JACKSONVILLE   SUNNY     87  71  58 S14       30.09F
PINEY ISLAND   PTCLDY   N/A N/A N/A S12       30.11F
WILMINGTON     SUNNY     89  70  53 S12       30.09F


$$

NCZ011>013-027>030-043-044-078>080-089-090>093-098-062100-
COASTAL PLAIN

CITY           SKY/WX    TMP DP  RH WIND       PRES   REMARKS
AHOSKIE        SUNNY     87  72  61 S3        30.07F
CLINTON        SUNNY     91  69  49 W3        30.08F
ELIZABETHTOWN  SUNNY     89  67  46 S3        30.09F
GOLDSBORO      SUNNY     91  69  47 CALM      30.06F
GREENVILLE     SUNNY     90  70  51 SW7       30.08F
HAVELOCK       PTSUNNY   87  71  58 S14       30.11F
KENANSVILLE    MOSUNNY   89  65  44 CALM      30.09F
KINSTON        MOSUNNY   91  66  43 S9        30.08F
NEW BERN       SUNNY     89  72  56 S10       30.10F
RICHLANDS      PTSUNNY   91  70  49 S13       30.08F
ROCKY MOUNT    MOSUNNY   91  69  48 S10       30.07F
WASHINGTON     MOSUNNY   85  73  68 SE8       30.08F
WHITEVILLE     MOSUNNY   87  69  54 W3        30.08F

$$

AMZ130-135-150-152-154-156-158-170-250-252-270-ANZ085-086-088-633-658-670-062100-
MARINE OBSERVATIONS

STATION/POSITION TIME  TEMP    WIND        PRES    WAVE   SWELL
                       AIR SEA DIR/SP/G            HT/PER HT/PER
                 (UTC) (F)     (DEG/KT/KT) (MB)    (FT/S) (FT/S)
CHESAPEAKE LIGHT 2000   78     290/ 10/ 17 1020.3
64 E VA BEACH    1950   79 77  180/ 12/ 14 1019.7    3/ 8   2/ 8
DUCK             2000   80 78  190/ 12/ 16   N/A
2 E DUCK         1911      77                N/A     2/13   2/13
OREGON INLET     2000   81 76  190/ 14/ 17 1019.6
13E OREGON INLT  1900      79                N/A     3/13   2/13
HATTERAS CG      2000   83 80  180/  5/ 12 1019.7
DIAMOND BUOY     1950   81 83  180/ 16/ 17 1020.1    3/ 4   2/ 9
CAPE LOOKOUT     2000   81     180/ 11/ 14 1019.5
BEAUFORT LAB     2000   81 82  180/ 11/ 14 1019.0
30 SE NEW RVR IN NOT AVBL
27 SE WRIGHTSVLE 2000      80  210/ 10/ 12   N/A
5 SE WRIGHTSVLE  1908   80 79  200/ 16/ 19 1019.7
225 S CAPE HAT   1950   82 80  210/ 10/ 12 1022.6    4/ 9   3/ 9
41 SE CHARLESTON 1950   80 83  230/ 10/ 12 1020.0    3/ 9   2/ 9

$$


USA.gov is the U.S. government's official web portal to all federal, state and local government web resources and services.